owner,sensor,date,latitude,longitude,vertical_datum,wind_speed,wind_to_direction,wind_speed_of_gust,qcFlag 
TABS,ioos:station:wmo:42047:1,2014-05-01T00:00:00Z,27.8966,-93.5973,4.0,6.234621079,11.00330466,8.22,'11111222,11111222,11111222' 
TABS,ioos:station:wmo:42047:1,2014-05-01T00:30:00Z,27.8966,-93.5973,4.0,5.945695922,20.47683605,7.38,'11111222,11111222,11111222' 
TABS,ioos:station:wmo:42047:1,2014-05-01T01:00:00Z,27.8966,-93.5973,4.0,6.178106506,14.91325011,7.31,'11111222,11111222,11111222' 
TABS,ioos:station:wmo:42047:1,2014-05-01T01:30:00Z,27.8966,-93.5973,4.0,4.671702045,30.62693924,6.19,'11111222,11111222,11111222' 
TABS,ioos:station:wmo:42047:1,2014-05-01T02:00:00Z,27.8966,-93.5973,4.0,5.48249031,15.22737506,7.13,'11111222,11111222,11111222' 
TABS,ioos:station:wmo:42047:1,2014-05-01T02:30:00Z,27.8966,-93.5973,4.0,4.68363107,29.41078509,6.25,'11111222,11111222,11111222' 
TABS,ioos:station:wmo:42047:1,2014-05-01T03:00:00Z,27.8966,-93.5973,4.0,4.96025201,27.49465332,6.21,'11111222,11111222,11111222' 
TABS,ioos:station:wmo:42047:1,2014-05-01T03:30:00Z,27.8966,-93.5973,4.0,3.97327321,13.09165199,5.35,'11111222,11111222,11111222' 
TABS,ioos:station:wmo:42047:1,2014-05-01T04:00:00Z,27.8966,-93.5973,4.0,4.477019098,4.997235193,5.77,'11111222,11111222,11111222' 
TABS,ioos:station:wmo:42047:1,2014-05-01T04:30:00Z,27.8966,-93.5973,4.0,4.462118331,8.765456192,5.56,'11111222,11111222,11111222' 
TABS,ioos:station:wmo:42047:1,2014-05-01T05:00:00Z,27.8966,-93.5973,4.0,4.129213,15.44958939,5.34,'11111222,11111222,11111222' 
TABS,ioos:station:wmo:42047:1,2014-05-01T05:30:00Z,27.8966,-93.5973,4.0,4.685168087,2.691193263,5.79,'11111222,11111222,11111222' 
TABS,ioos:station:wmo:42047:1,2014-05-01T06:00:00Z,27.8966,-93.5973,4.0,5.249780948,8.654656686,6.81,'11111222,11111222,11111222' 
TABS,ioos:station:wmo:42047:1,2014-05-01T06:30:00Z,27.8966,-93.5973,4.0,5.175113525,2.547045851,6.62,'11111222,11111222,11111222' 
TABS,ioos:station:wmo:42047:1,2014-05-01T07:00:00Z,27.8966,-93.5973,4.0,6.240801231,359.0816687,7.81,'11111222,11144222,11111222' 
TABS,ioos:station:wmo:42047:1,2014-05-01T07:30:00Z,27.8966,-93.5973,4.0,6.130522001,0.747487982,7.25,'11111222,11111222,11111222' 
TABS,ioos:station:wmo:42047:1,2014-05-01T08:00:00Z,27.8966,-93.5973,4.0,7.529867197,354.8949294,9.32,'11111222,11111222,11111222' 
TABS,ioos:station:wmo:42047:1,2014-05-01T08:30:00Z,27.8966,-93.5973,4.0,8.370722788,11.92719736,9.92,'11111222,11111222,11111222' 
TABS,ioos:station:wmo:42047:1,2014-05-01T09:00:00Z,27.8966,-93.5973,4.0,9.0141278,25.14334211,10.34,'11111222,11111222,11111222' 
TABS,ioos:station:wmo:42047:1,2014-05-01T09:30:00Z,27.8966,-93.5973,4.0,9.876892224,23.32019884,11.54,'11111222,11111222,11111222' 
TABS,ioos:station:wmo:42047:1,2014-05-01T10:00:00Z,27.8966,-93.5973,4.0,10.40777114,27.40187071,12.26,'11111222,11111222,11111222' 
TABS,ioos:station:wmo:42047:1,2014-05-01T10:30:00Z,27.8966,-93.5973,4.0,10.31496486,32.28771724,12.13,'11111222,11111222,11111222' 
TABS,ioos:station:wmo:42047:1,2014-05-01T11:00:00Z,27.8966,-93.5973,4.0,10.0069276,35.07146802,11.9,'11111222,11111222,11111222' 
TABS,ioos:station:wmo:42047:1,2014-05-01T11:30:00Z,27.8966,-93.5973,4.0,10.57756588,35.88371043,12.39,'11111222,11111222,11111222' 
TABS,ioos:station:wmo:42047:1,2014-05-01T12:00:00Z,27.8966,-93.5973,4.0,9.918518034,46.7972458,12.0,'11111222,11111222,11111222' 
TABS,ioos:station:wmo:42047:1,2014-05-01T12:30:00Z,27.8966,-93.5973,4.0,10.57164604,39.04886463,12.69,'11111222,11111222,11111222' 
TABS,ioos:station:wmo:42047:1,2014-05-01T13:00:00Z,27.8966,-93.5973,4.0,10.31515875,40.87210226,12.12,'11111222,11111222,11111222' 
TABS,ioos:station:wmo:42047:1,2014-05-01T13:30:00Z,27.8966,-93.5973,4.0,10.16356237,41.0901611,12.42,'11111222,11111222,11111222' 
TABS,ioos:station:wmo:42047:1,2014-05-01T14:00:00Z,27.8966,-93.5973,4.0,9.935577487,44.30646122,12.37,'11111222,11111222,11111222' 
TABS,ioos:station:wmo:42047:1,2014-05-01T14:30:00Z,27.8966,-93.5973,4.0,10.17775024,40.05754263,12.62,'11111222,11111222,11111222' 
TABS,ioos:station:wmo:42047:1,2014-05-01T15:00:00Z,27.8966,-93.5973,4.0,9.860354963,46.47901349,12.24,'11111222,11111222,11111222' 
TABS,ioos:station:wmo:42047:1,2014-05-01T15:30:00Z,27.8966,-93.5973,4.0,9.370645655,37.54219771,11.69,'11111222,11111222,11111222' 
TABS,ioos:station:wmo:42047:1,2014-05-01T16:00:00Z,27.8966,-93.5973,4.0,9.869083037,50.17923453,11.71,'11111222,11111222,11111222' 
TABS,ioos:station:wmo:42047:1,2014-05-01T16:30:00Z,27.8966,-93.5973,4.0,9.686118934,52.84583533,11.74,'11111222,11111222,11111222' 
TABS,ioos:station:wmo:42047:1,2014-05-01T17:00:00Z,27.8966,-93.5973,4.0,9.189396063,47.82245322,11.11,'11111222,11111222,11111222' 
TABS,ioos:station:wmo:42047:1,2014-05-01T17:30:00Z,27.8966,-93.5973,4.0,9.429363711,55.06239761,12.08,'11111222,11111222,11111222' 
TABS,ioos:station:wmo:42047:1,2014-05-01T18:00:00Z,27.8966,-93.5973,4.0,9.23197162,57.42850365,10.99,'11111222,11111222,11111222' 
TABS,ioos:station:wmo:42047:1,2014-05-01T18:30:00Z,27.8966,-93.5973,4.0,9.313372107,45.73922257,11.07,'11111222,11111222,11111222' 
TABS,ioos:station:wmo:42047:1,2014-05-01T19:00:00Z,27.8966,-93.5973,4.0,7.815478232,52.01537811,9.61,'11111222,11111222,11111222' 
TABS,ioos:station:wmo:42047:1,2014-05-01T19:30:00Z,27.8966,-93.5973,4.0,6.913935204,47.28560492,8.65,'11111222,11111222,11111222' 
TABS,ioos:station:wmo:42047:1,2014-05-01T20:00:00Z,27.8966,-93.5973,4.0,5.368090908,48.17113411,7.02,'11111222,11111222,11111222' 
TABS,ioos:station:wmo:42047:1,2014-05-01T20:30:00Z,27.8966,-93.5973,4.0,6.486485952,50.56732049,8.85,'11111222,11111222,11111222' 
TABS,ioos:station:wmo:42047:1,2014-05-01T21:00:00Z,27.8966,-93.5973,4.0,6.925207578,46.57944978,8.92,'11111222,11111222,11111222' 
TABS,ioos:station:wmo:42047:1,2014-05-01T21:30:00Z,27.8966,-93.5973,4.0,6.366576788,32.49161267,8.08,'11111222,11111222,11111222' 
TABS,ioos:station:wmo:42047:1,2014-05-01T22:00:00Z,27.8966,-93.5973,4.0,7.052609446,48.96659939,9.05,'11111222,11111222,11111222' 
TABS,ioos:station:wmo:42047:1,2014-05-01T22:30:00Z,27.8966,-93.5973,4.0,7.029516342,54.31985889,8.55,'11111222,11111222,11111222' 
TABS,ioos:station:wmo:42047:1,2014-05-01T23:00:00Z,27.8966,-93.5973,4.0,5.1374118,47.20833907,6.77,'11111222,11111222,11111222' 
TABS,ioos:station:wmo:42047:1,2014-05-01T23:30:00Z,27.8966,-93.5973,4.0,5.169071483,45.39157728,6.42,'11111222,11111222,11111222' 
TABS,ioos:station:wmo:42047:1,2014-05-02T00:00:00Z,27.8966,-93.5973,4.0,5.35023364,52.59430992,7.01,'11111222,11111222,11111222' 
TABS,ioos:station:wmo:42047:1,2014-05-02T00:30:00Z,27.8966,-93.5973,4.0,6.029593684,66.75113373,7.93,'11111222,11111222,11111222' 
TABS,ioos:station:wmo:42047:1,2014-05-02T01:00:00Z,27.8966,-93.5973,4.0,4.972293234,53.75202092,7.01,'11111222,11111222,11111222' 
TABS,ioos:station:wmo:42047:1,2014-05-02T01:30:00Z,27.8966,-93.5973,4.0,4.632763754,43.6877996,5.53,'11111222,11111222,11111222' 
TABS,ioos:station:wmo:42047:1,2014-05-02T02:00:00Z,27.8966,-93.5973,4.0,5.262090839,46.23165883,6.75,'11111222,11111222,11111222' 
TABS,ioos:station:wmo:42047:1,2014-05-02T02:30:00Z,27.8966,-93.5973,4.0,4.576111887,36.46893865,5.36,'11111222,11111222,11111222' 
TABS,ioos:station:wmo:42047:1,2014-05-02T03:00:00Z,27.8966,-93.5973,4.0,4.039665828,35.2241162,4.96,'11111222,11111222,11111222' 
TABS,ioos:station:wmo:42047:1,2014-05-02T03:30:00Z,27.8966,-93.5973,4.0,3.590682386,52.01272392,5.53,'11111222,11111222,11111222' 
TABS,ioos:station:wmo:42047:1,2014-05-02T04:00:00Z,27.8966,-93.5973,4.0,4.198690272,49.44278313,5.84,'11111222,11111222,11111222' 
TABS,ioos:station:wmo:42047:1,2014-05-02T04:30:00Z,27.8966,-93.5973,4.0,3.660833238,28.73509086,4.87,'11111222,11111222,11111222' 
TABS,ioos:station:wmo:42047:1,2014-05-02T05:00:00Z,27.8966,-93.5973,4.0,4.370011442,22.75071268,5.5,'11111222,11111222,11111222' 
TABS,ioos:station:wmo:42047:1,2014-05-02T05:30:00Z,27.8966,-93.5973,4.0,4.724669301,13.71246559,6.22,'11111222,11111222,11111222' 
TABS,ioos:station:wmo:42047:1,2014-05-02T06:00:00Z,27.8966,-93.5973,4.0,5.331013037,7.11145846,6.34,'11111222,11111222,11111222' 
TABS,ioos:station:wmo:42047:1,2014-05-02T06:30:00Z,27.8966,-93.5973,4.0,6.013917193,8.992206946,7.47,'11111222,11111222,11111222' 
TABS,ioos:station:wmo:42047:1,2014-05-02T07:00:00Z,27.8966,-93.5973,4.0,6.167738646,13.78816371,7.35,'11111222,11111222,11111222' 
TABS,ioos:station:wmo:42047:1,2014-05-02T07:30:00Z,27.8966,-93.5973,4.0,5.970971445,9.44631439,7.25,'11111222,11111222,11111222' 
TABS,ioos:station:wmo:42047:1,2014-05-02T08:00:00Z,27.8966,-93.5973,4.0,5.493750995,19.45713421,7.1,'11111222,11111222,11111222' 
TABS,ioos:station:wmo:42047:1,2014-05-02T08:30:00Z,27.8966,-93.5973,4.0,5.514390265,12.67507499,7.38,'11111222,11111222,11111222' 
TABS,ioos:station:wmo:42047:1,2014-05-02T09:00:00Z,27.8966,-93.5973,4.0,6.6736272,1.888916069,8.24,'11111222,11111222,11111222' 
TABS,ioos:station:wmo:42047:1,2014-05-02T09:30:00Z,27.8966,-93.5973,4.0,6.623480958,7.28573163,8.2,'11111222,11111222,11111222' 
TABS,ioos:station:wmo:42047:1,2014-05-02T10:00:00Z,27.8966,-93.5973,4.0,6.430497648,0.712606828,7.88,'11111222,11111222,11111222' 
TABS,ioos:station:wmo:42047:1,2014-05-02T10:30:00Z,27.8966,-93.5973,4.0,7.673851706,14.18086877,9.17,'11111222,11111222,11111222' 
TABS,ioos:station:wmo:42047:1,2014-05-02T11:00:00Z,27.8966,-93.5973,4.0,7.30096569,3.140434233,8.87,'11111222,11111222,11111222' 
TABS,ioos:station:wmo:42047:1,2014-05-02T11:30:00Z,27.8966,-93.5973,4.0,7.668976464,14.03600019,9.29,'11111222,11111222,11111222' 
TABS,ioos:station:wmo:42047:1,2014-05-02T12:00:00Z,27.8966,-93.5973,4.0,7.593503803,7.414914977,9.35,'11111222,11111222,11111222' 
TABS,ioos:station:wmo:42047:1,2014-05-02T12:30:00Z,27.8966,-93.5973,4.0,7.835432343,9.846779741,9.06,'11111222,11111222,11111222' 
TABS,ioos:station:wmo:42047:1,2014-05-02T13:00:00Z,27.8966,-93.5973,4.0,7.256031973,7.124789229,9.06,'11111222,11111222,11111222' 
TABS,ioos:station:wmo:42047:1,2014-05-02T13:30:00Z,27.8966,-93.5973,4.0,6.670921975,15.11927966,9.05,'11111222,11111222,11111222' 
TABS,ioos:station:wmo:42047:1,2014-05-02T14:00:00Z,27.8966,-93.5973,4.0,7.567410389,18.1713239,8.89,'11111222,11111222,11111222' 
TABS,ioos:station:wmo:42047:1,2014-05-02T14:30:00Z,27.8966,-93.5973,4.0,8.287345775,15.39433677,9.45,'11111222,11111222,11111222' 
TABS,ioos:station:wmo:42047:1,2014-05-02T15:00:00Z,27.8966,-93.5973,4.0,6.232848466,11.85054463,7.94,'11111222,11111222,11111222' 
TABS,ioos:station:wmo:42047:1,2014-05-02T15:30:00Z,27.8966,-93.5973,4.0,8.150828179,357.0461224,9.76,'11111222,11111222,11111222' 
TABS,ioos:station:wmo:42047:1,2014-05-02T16:00:00Z,27.8966,-93.5973,4.0,8.420843188,352.5625321,10.05,'11111222,11111222,11111222' 
TABS,ioos:station:wmo:42047:1,2014-05-02T16:30:00Z,27.8966,-93.5973,4.0,6.077910825,34.81410349,7.49,'11111222,11111222,11111222' 
TABS,ioos:station:wmo:42047:1,2014-05-02T17:00:00Z,27.8966,-93.5973,4.0,4.950252519,60.06813723,6.24,'11111222,11111222,11111222' 
TABS,ioos:station:wmo:42047:1,2014-05-02T17:30:00Z,27.8966,-93.5973,4.0,5.004607877,54.02279292,6.03,'11111222,11111222,11111222' 
TABS,ioos:station:wmo:42047:1,2014-05-02T18:00:00Z,27.8966,-93.5973,4.0,3.749733324,51.38758771,4.74,'11111222,11111222,11111222' 
TABS,ioos:station:wmo:42047:1,2014-05-02T18:30:00Z,27.8966,-93.5973,4.0,3.771392316,49.08529154,4.6,'11111222,11111222,11111222' 
TABS,ioos:station:wmo:42047:1,2014-05-02T19:00:00Z,27.8966,-93.5973,4.0,4.707706448,30.65038582,5.78,'11111222,11111222,11111222' 
TABS,ioos:station:wmo:42047:1,2014-05-02T19:30:00Z,27.8966,-93.5973,4.0,4.750347356,10.55273686,5.86,'11111222,11111222,11111222' 
TABS,ioos:station:wmo:42047:1,2014-05-02T20:00:00Z,27.8966,-93.5973,4.0,6.685207551,355.0226358,8.45,'11111222,11111222,11111222' 
TABS,ioos:station:wmo:42047:1,2014-05-02T20:30:00Z,27.8966,-93.5973,4.0,6.45031007,348.9163473,7.77,'11111222,11111222,11111222' 
TABS,ioos:station:wmo:42047:1,2014-05-02T21:00:00Z,27.8966,-93.5973,4.0,5.961249869,347.502286,7.53,'11111222,11111222,11111222' 
TABS,ioos:station:wmo:42047:1,2014-05-02T21:30:00Z,27.8966,-93.5973,4.0,5.583950215,347.9050607,6.87,'11111222,11111222,11111222' 
TABS,ioos:station:wmo:42047:1,2014-05-02T22:00:00Z,27.8966,-93.5973,4.0,5.933177901,337.714254,7.19,'11111222,11111222,11111222' 
TABS,ioos:station:wmo:42047:1,2014-05-02T22:30:00Z,27.8966,-93.5973,4.0,5.630506194,333.7533592,6.98,'11111222,11111222,11111222' 
TABS,ioos:station:wmo:42047:1,2014-05-02T23:00:00Z,27.8966,-93.5973,4.0,5.237604414,339.3157576,6.37,'11111222,11111222,11111222' 
TABS,ioos:station:wmo:42047:1,2014-05-02T23:30:00Z,27.8966,-93.5973,4.0,4.865932593,332.8555444,5.93,'11111222,11111222,11111222' 
TABS,ioos:station:wmo:42047:1,2014-05-03T00:00:00Z,27.8966,-93.5973,4.0,4.468747028,334.6963625,5.41,'11111222,11111222,11111222' 
TABS,ioos:station:wmo:42047:1,2014-05-03T00:30:00Z,27.8966,-93.5973,4.0,4.52203494,327.6452856,5.38,'11111222,11111222,11111222' 
TABS,ioos:station:wmo:42047:1,2014-05-03T01:00:00Z,27.8966,-93.5973,4.0,3.593800217,331.2239868,4.64,'11111222,11111222,11111222' 
TABS,ioos:station:wmo:42047:1,2014-05-03T01:30:00Z,27.8966,-93.5973,4.0,3.220015528,322.9520419,4.0,'11111222,11111222,11111222' 
TABS,ioos:station:wmo:42047:1,2014-05-03T02:00:00Z,27.8966,-93.5973,4.0,3.160142402,322.5860485,3.98,'11111222,11111222,11111222' 
TABS,ioos:station:wmo:42047:1,2014-05-03T02:30:00Z,27.8966,-93.5973,4.0,2.736000731,306.8279287,3.38,'11111222,11111222,11111222' 
TABS,ioos:station:wmo:42047:1,2014-05-03T03:00:00Z,27.8966,-93.5973,4.0,2.719117504,296.1880495,3.48,'11111222,11111222,11111222' 
TABS,ioos:station:wmo:42047:1,2014-05-03T03:30:00Z,27.8966,-93.5973,4.0,2.504096644,285.7567834,3.21,'11111222,11111222,11111222' 
TABS,ioos:station:wmo:42047:1,2014-05-03T04:00:00Z,27.8966,-93.5973,4.0,3.395364487,290.5164965,4.15,'11111222,11111222,11111222' 
TABS,ioos:station:wmo:42047:1,2014-05-03T04:30:00Z,27.8966,-93.5973,4.0,2.094039159,266.4407415,2.74,'11111222,11111222,11111222' 
TABS,ioos:station:wmo:42047:1,2014-05-03T05:00:00Z,27.8966,-93.5973,4.0,2.660676606,268.7078361,3.35,'11111222,11111222,11111222' 
TABS,ioos:station:wmo:42047:1,2014-05-03T05:30:00Z,27.8966,-93.5973,4.0,2.179105321,245.3167372,3.03,'11111222,11111222,11111222' 
TABS,ioos:station:wmo:42047:1,2014-05-03T06:00:00Z,27.8966,-93.5973,4.0,3.145679577,248.1648188,3.91,'11111222,11111222,11111222' 
TABS,ioos:station:wmo:42047:1,2014-05-03T06:30:00Z,27.8966,-93.5973,4.0,3.287704366,244.6041475,4.11,'11111222,11111222,11111222' 
TABS,ioos:station:wmo:42047:1,2014-05-03T07:00:00Z,27.8966,-93.5973,4.0,3.260705445,242.4133862,3.99,'11111222,11111222,11111222' 
TABS,ioos:station:wmo:42047:1,2014-05-03T07:30:00Z,27.8966,-93.5973,4.0,3.747332385,238.6429881,4.32,'11111222,11111222,11111222' 
TABS,ioos:station:wmo:42047:1,2014-05-03T08:00:00Z,27.8966,-93.5973,4.0,3.622292092,232.4025635,4.44,'11111222,11111222,11111222' 
TABS,ioos:station:wmo:42047:1,2014-05-03T08:30:00Z,27.8966,-93.5973,4.0,3.685050882,234.498554,4.47,'11111222,11111222,11111222' 
TABS,ioos:station:wmo:42047:1,2014-05-03T09:00:00Z,27.8966,-93.5973,4.0,4.006320007,230.4691874,4.69,'11111222,11111222,11111222' 
TABS,ioos:station:wmo:42047:1,2014-05-03T09:30:00Z,27.8966,-93.5973,4.0,4.002848985,226.0122905,4.89,'11111222,11111222,11111222' 
TABS,ioos:station:wmo:42047:1,2014-05-03T10:00:00Z,27.8966,-93.5973,4.0,4.238136383,232.6705354,4.97,'11111222,11111222,11111222' 
TABS,ioos:station:wmo:42047:1,2014-05-03T10:30:00Z,27.8966,-93.5973,4.0,4.22234532,233.8629683,5.4,'11111222,11111222,11111222' 
TABS,ioos:station:wmo:42047:1,2014-05-03T11:00:00Z,27.8966,-93.5973,4.0,4.56863218,234.0833557,5.28,'11111222,11111222,11111222' 
TABS,ioos:station:wmo:42047:1,2014-05-03T11:30:00Z,27.8966,-93.5973,4.0,4.634274485,244.7068096,5.53,'11111222,11111222,11111222' 
TABS,ioos:station:wmo:42047:1,2014-05-03T12:00:00Z,27.8966,-93.5973,4.0,5.010808318,250.0462474,5.63,'11111222,11111222,11111222' 
TABS,ioos:station:wmo:42047:1,2014-05-03T12:30:00Z,27.8966,-93.5973,4.0,5.314000376,255.7284366,6.23,'11111222,11111222,11111222' 
TABS,ioos:station:wmo:42047:1,2014-05-03T13:00:00Z,27.8966,-93.5973,4.0,5.16939068,254.861569,6.21,'11111222,11111222,11111222' 
TABS,ioos:station:wmo:42047:1,2014-05-03T13:30:00Z,27.8966,-93.5973,4.0,4.799802079,256.1374997,5.46,'11111222,11111222,11111222' 
TABS,ioos:station:wmo:42047:1,2014-05-03T14:00:00Z,27.8966,-93.5973,4.0,5.160823578,253.5666413,6.01,'11111222,11111222,11111222' 
TABS,ioos:station:wmo:42047:1,2014-05-03T14:30:00Z,27.8966,-93.5973,4.0,4.596542179,245.7211596,5.72,'11111222,11111222,11111222' 
TABS,ioos:station:wmo:42047:1,2014-05-03T15:00:00Z,27.8966,-93.5973,4.0,4.566399019,251.8825184,5.31,'11111222,11111222,11111222' 
TABS,ioos:station:wmo:42047:1,2014-05-03T15:30:00Z,27.8966,-93.5973,4.0,4.954856204,253.4669329,6.0,'11111222,11111222,11111222' 
TABS,ioos:station:wmo:42047:1,2014-05-03T16:00:00Z,27.8966,-93.5973,4.0,4.742362281,259.3061524,5.48,'11111222,11111222,11111222' 
TABS,ioos:station:wmo:42047:1,2014-05-03T16:30:00Z,27.8966,-93.5973,4.0,4.79334956,258.0805888,5.65,'11111222,11111222,11111222' 
TABS,ioos:station:wmo:42047:1,2014-05-03T17:00:00Z,27.8966,-93.5973,4.0,5.060632372,262.7345701,5.72,'11111222,11111222,11111222' 
TABS,ioos:station:wmo:42047:1,2014-05-03T17:30:00Z,27.8966,-93.5973,4.0,4.750347356,259.4470527,5.53,'11111222,11111222,11111222' 
TABS,ioos:station:wmo:42047:1,2014-05-03T18:00:00Z,27.8966,-93.5973,4.0,4.89253513,265.8977055,5.73,'11111222,11111222,11111222' 
TABS,ioos:station:wmo:42047:1,2014-05-03T18:30:00Z,27.8966,-93.5973,4.0,4.432177794,262.089299,5.1,'11111222,11111222,11111222' 
TABS,ioos:station:wmo:42047:1,2014-05-03T19:00:00Z,27.8966,-93.5973,4.0,4.725261898,259.7602493,5.6,'11111222,11111222,11111222' 
TABS,ioos:station:wmo:42047:1,2014-05-03T19:30:00Z,27.8966,-93.5973,4.0,4.876433123,259.8423048,5.84,'11111222,11111222,11111222' 
TABS,ioos:station:wmo:42047:1,2014-05-03T20:00:00Z,27.8966,-93.5973,4.0,5.033905045,257.2613484,5.7,'11111222,11111222,11111222' 
TABS,ioos:station:wmo:42047:1,2014-05-03T20:30:00Z,27.8966,-93.5973,4.0,4.835752268,265.3741228,5.58,'11111222,11111222,11111222' 
TABS,ioos:station:wmo:42047:1,2014-05-03T21:00:00Z,27.8966,-93.5973,4.0,5.170705948,261.2117352,6.26,'11111222,11111222,11111222' 
TABS,ioos:station:wmo:42047:1,2014-05-03T21:30:00Z,27.8966,-93.5973,4.0,5.050346523,256.9543934,6.03,'11111222,11111222,11111222' 
TABS,ioos:station:wmo:42047:1,2014-05-03T22:00:00Z,27.8966,-93.5973,4.0,4.812920112,258.1297632,5.74,'11111222,11111222,11111222' 
TABS,ioos:station:wmo:42047:1,2014-05-03T22:30:00Z,27.8966,-93.5973,4.0,4.383103923,247.1790809,5.34,'11111222,11111222,11111222' 
TABS,ioos:station:wmo:42047:1,2014-05-03T23:00:00Z,27.8966,-93.5973,4.0,4.538634156,245.8068476,5.39,'11111222,11111222,11111222' 
TABS,ioos:station:wmo:42047:1,2014-05-03T23:30:00Z,27.8966,-93.5973,4.0,4.437082375,246.2080113,5.33,'11111222,11111222,11111222' 
TABS,ioos:station:wmo:42047:1,2014-05-04T00:00:00Z,27.8966,-93.5973,4.0,4.734015209,232.9849528,5.53,'11111222,11111222,11111222' 
TABS,ioos:station:wmo:42047:1,2014-05-04T00:30:00Z,27.8966,-93.5973,4.0,4.518462128,224.7311136,5.34,'11111222,11111222,11111222' 
TABS,ioos:station:wmo:42047:1,2014-05-04T01:00:00Z,27.8966,-93.5973,4.0,4.565369645,220.914498,5.35,'11111222,11111222,11111222' 
TABS,ioos:station:wmo:42047:1,2014-05-04T01:30:00Z,27.8966,-93.5973,4.0,4.765091814,218.0965675,5.46,'11111222,11111222,11111222' 
TABS,ioos:station:wmo:42047:1,2014-05-04T02:00:00Z,27.8966,-93.5973,4.0,5.1,216.8700219,5.95,'11111222,11111222,11111222' 
TABS,ioos:station:wmo:42047:1,2014-05-04T02:30:00Z,27.8966,-93.5973,4.0,4.966135318,212.2501092,5.76,'11111222,11111222,11111222' 
TABS,ioos:station:wmo:42047:1,2014-05-04T03:00:00Z,27.8966,-93.5973,4.0,4.824458519,215.0407951,5.63,'11111222,11111222,11111222' 
TABS,ioos:station:wmo:42047:1,2014-05-04T03:30:00Z,27.8966,-93.5973,4.0,4.813865391,215.2749195,5.43,'11111222,11111222,11111222' 
TABS,ioos:station:wmo:42047:1,2014-05-04T04:00:00Z,27.8966,-93.5973,4.0,5.023076746,215.6836628,5.88,'11111222,11111222,11111222' 
TABS,ioos:station:wmo:42047:1,2014-05-04T04:30:00Z,27.8966,-93.5973,4.0,5.326856484,211.3328247,6.05,'11111222,11111222,11111222' 
TABS,ioos:station:wmo:42047:1,2014-05-04T05:00:00Z,27.8966,-93.5973,4.0,6.006404915,205.9679471,6.71,'11111222,11111222,11111222' 
TABS,ioos:station:wmo:42047:1,2014-05-04T05:30:00Z,27.8966,-93.5973,4.0,6.566193722,201.7205514,7.31,'11111222,11111222,11111222' 
TABS,ioos:station:wmo:42047:1,2014-05-04T06:00:00Z,27.8966,-93.5973,4.0,7.272310499,199.8553784,8.11,'11111222,11111222,11111222' 
TABS,ioos:station:wmo:42047:1,2014-05-04T06:30:00Z,27.8966,-93.5973,4.0,6.92145216,204.862017,7.95,'11111222,11111222,11111222' 
TABS,ioos:station:wmo:42047:1,2014-05-04T07:00:00Z,27.8966,-93.5973,4.0,7.398161934,201.5714672,8.58,'11111222,11111222,11111222' 
TABS,ioos:station:wmo:42047:1,2014-05-04T07:30:00Z,27.8966,-93.5973,4.0,6.729829121,197.7351102,7.35,'11111222,11111222,11111222' 
TABS,ioos:station:wmo:42047:1,2014-05-04T08:00:00Z,27.8966,-93.5973,4.0,6.700746227,195.4052817,7.6,'11111222,11111222,11111222' 
TABS,ioos:station:wmo:42047:1,2014-05-04T08:30:00Z,27.8966,-93.5973,4.0,6.689521657,195.6985052,7.52,'11111222,11111222,11111222' 
TABS,ioos:station:wmo:42047:1,2014-05-04T09:00:00Z,27.8966,-93.5973,4.0,6.954574034,195.8550368,7.86,'11111222,11111222,11111222' 
TABS,ioos:station:wmo:42047:1,2014-05-04T09:30:00Z,27.8966,-93.5973,4.0,6.811115914,196.8122181,7.91,'11111222,11111222,11111222' 
TABS,ioos:station:wmo:42047:1,2014-05-04T10:00:00Z,27.8966,-93.5973,4.0,7.071018314,203.5924153,7.94,'11111222,11111222,11111222' 
TABS,ioos:station:wmo:42047:1,2014-05-04T10:30:00Z,27.8966,-93.5973,4.0,6.575598832,202.1575385,7.68,'11111222,11111222,11111222' 
TABS,ioos:station:wmo:42047:1,2014-05-04T11:00:00Z,27.8966,-93.5973,4.0,7.284922786,202.0936676,8.53,'11111222,11111222,11111222' 
TABS,ioos:station:wmo:42047:1,2014-05-04T11:30:00Z,27.8966,-93.5973,4.0,7.029722612,204.6329793,7.98,'11111222,11111222,11111222' 
TABS,ioos:station:wmo:42047:1,2014-05-04T12:00:00Z,27.8966,-93.5973,4.0,6.833220324,208.5905277,7.84,'11111222,11111222,11111222' 
TABS,ioos:station:wmo:42047:1,2014-05-04T12:30:00Z,27.8966,-93.5973,4.0,6.246639096,208.4934793,6.97,'11111222,11111222,11111222' 
TABS,ioos:station:wmo:42047:1,2014-05-04T13:00:00Z,27.8966,-93.5973,4.0,5.657958996,213.8306294,6.44,'11111222,11111222,11111222' 
TABS,ioos:station:wmo:42047:1,2014-05-04T13:30:00Z,27.8966,-93.5973,4.0,5.170348151,217.5349318,6.03,'11111222,11111222,11111222' 
TABS,ioos:station:wmo:42047:1,2014-05-04T14:00:00Z,27.8966,-93.5973,4.0,5.652654244,217.7417567,6.4,'11111222,11111222,11111222' 
TABS,ioos:station:wmo:42047:1,2014-05-04T14:30:00Z,27.8966,-93.5973,4.0,5.514208919,216.3712693,6.62,'11111222,11111222,11111222' 
TABS,ioos:station:wmo:42047:1,2014-05-04T15:00:00Z,27.8966,-93.5973,4.0,5.103430219,221.0276186,6.0,'11111222,11111222,11111222' 
TABS,ioos:station:wmo:42047:1,2014-05-04T15:30:00Z,27.8966,-93.5973,4.0,5.438648729,217.7549891,6.53,'11111222,11111222,11111222' 
TABS,ioos:station:wmo:42047:1,2014-05-04T16:00:00Z,27.8966,-93.5973,4.0,5.267152931,220.9199782,6.32,'11111222,11111222,11111222' 
TABS,ioos:station:wmo:42047:1,2014-05-04T16:30:00Z,27.8966,-93.5973,4.0,4.96448386,228.1844547,6.09,'11111222,11111222,11111222' 
TABS,ioos:station:wmo:42047:1,2014-05-04T17:00:00Z,27.8966,-93.5973,4.0,4.676334034,223.180432,5.6,'11111222,11111222,11111222' 
TABS,ioos:station:wmo:42047:1,2014-05-04T17:30:00Z,27.8966,-93.5973,4.0,4.582248356,224.4696052,5.27,'11111222,11111222,11111222' 
TABS,ioos:station:wmo:42047:1,2014-05-04T18:00:00Z,27.8966,-93.5973,4.0,4.709193137,215.5802359,5.34,'11111222,11111222,11111222' 
TABS,ioos:station:wmo:42047:1,2014-05-04T18:30:00Z,27.8966,-93.5973,4.0,4.728297791,209.3842989,5.74,'11111222,11111222,11111222' 